Location: Newark
(52.3500°N, 175.9667°E)
Time: 22:23:51
(UTC+00:00)

Altair - Pass Details

Date: 30 April 2021
Orbit: 1501 x 1683 km, 47.2° (Epoch: 05 May)

Event Time Altitude Azimuth Distance (km) Brightness Sun altitude
Rises 16:39:24 0° 245° (WSW) 4,914 - -1.7°
Exits shadow 16:40:03 - 245° (WSW) 4,713 9.3 -1.6°
Reaches altitude 10° 16:42:38 10° 242° (WSW) 3,913 9.0 -1.3°
Maximum altitude 16:52:24 61° 166° (SSE) 1,813 7.9 0.0°
Drops below altitude 10° 17:01:50 10° 89° (E) 3,786 11.0 1.4°
Sets 17:04:54 0° 87° (E) 4,747 11.8 1.8°
